Regional Weather Roundup
Issued by NWS

Home | Current Version | Previous Version | Graphics & Text | Print | Product List | Glossary On
Versions: 1 2 3 4 5 6 7 8 9 10 11 12 13 14 15 16 17 18 19 20 21 22 23 24 25 26 27 28 29 30 31 32 33 34 35 36 37 38 39 40 41 42 43 44 45 46 47 48 49 50
000
ASUS44 KMEG 161610
RWRTN
TENNESSEE HOURLY STATE WEATHER ROUNDUP
NATIONAL WEATHER SERVICE MEMPHIS TN
1100 AM CDT MON OCT 16 2017

TNZ002-004-019-021-049-052-054-088>092-161700-
WEST TENNESSEE

CITY           SKY/WX    TMP DP  RH WIND       PRES   REMARKS
MEMPHIS INTL   MOSUNNY   60  39  45 NE17      30.37S
NWS MEMPHIS      N/A     58 N/A N/A MISG        N/A
JACKSON        SUNNY     59  45  59 N15       30.37S
DYERSBURG      SUNNY     59  43  55 NE14      30.40R
COVINGTON      SUNNY     59  41  51 NE10G20   30.39R
UNION CITY     SUNNY     59  41  51 N12G18    30.38S
BOLIVAR        SUNNY     59  43  55 N10       30.35S
PARIS          MOSUNNY   57  43  58 NE9G17    30.36S
HUNTINGDON     MOSUNNY   57  45  62 N9        30.36S
LEXINGTON      SUNNY     57  43  58 N13       30.35S
SELMER         MOSUNNY   57  45  62 NE12G17   30.34S
SAVANNAH       MOSUNNY   57  45  62 N14G22    30.33S
$$

TNZ008-025-027-028-033-062-065-066-161700-
NORTH MIDDLE TENNESSEE

CITY           SKY/WX    TMP DP  RH WIND       PRES   REMARKS
NASHVILLE      PTSUNNY   59  41  51 NE16G23   30.34S
PORTLAND       CLOUDY    57  43  58 N12       30.33S
CLARKSVILLE    SUNNY     58  43  57 N10       30.36S
SMYRNA         MOSUNNY   60  43  53 NE13      30.34S
COOKEVILLE     PTSUNNY   57  45  62 N8G17     30.30S
GALLATIN       PTSUNNY   59  43  55 N13       30.36S
CROSSVILLE     PTSUNNY   54  41  61 N14G23    30.29S
$$

TNZ061-075-076-078-094-096-097-161700-
SOUTH MIDDLE TENNESSEE

CITY           SKY/WX    TMP DP  RH WIND       PRES   REMARKS
FAYETTEVILLE   SUNNY     57  43  58 N13G23    30.28S
TULLAHOMA      SUNNY     55  39  54 N15       30.30S
WINCHESTER     SUNNY     57  45  62 NE14        N/A
MCMINNVILLE    MOSUNNY   57  45  62 N12       30.30S
COLUMBIA       PTSUNNY   59  43  55 N14       30.31S
SHELBYVILLE    MOSUNNY   57  45  62 N17G23    30.31R
$$

TNZ017-018-042-046-047-161700-
NORTHEAST TENNESSEE

CITY           SKY/WX    TMP DP  RH WIND       PRES   REMARKS
TRI CITIES     CLOUDY    55  43  63 N10       30.26R
ELIZABETHTON   CLOUDY    55  45  67 VRB5      30.25R
$$

TNZ012-013-036-069-073-074-161700-
CENTRAL EAST TENNESSEE

CITY           SKY/WX    TMP DP  RH WIND       PRES   REMARKS
KNOXVILLE      PTSUNNY   59  46  62 N13       30.26R
OAK RIDGE      PTSUNNY   58  46  64 VRB7      30.30R
DOWNTOWN KNOXV CLOUDY    59  45  58 VRB5G12   30.28S
GATLINBURG     CLOUDY    55  46  71 VRB5      30.28R
MORRISTOWN     CLOUDY    55  43  62 N8G16     30.27R
JACKSBORO      CLOUDY    55  43  62 NE9G16    30.32S
$$

TNZ083-085-099-161700-
SOUTHEAST TENNESSEE

CITY           SKY/WX    TMP DP  RH WIND       PRES   REMARKS
CHATTANOOGA    MOSUNNY   60  42  51 N20       30.26R
DAYTON         SUNNY     61  46  59 N13G21    30.26S
$$

SKY/WX REPORTED AS FAIR MEANS FEW OR NO CLOUDS BELOW
12 THOUSAND FEET.





USA.gov is the U.S. government's official web portal to all federal, state and local government web resources and services.